• Processing (Info)

  • MPEC 2015-T105: 2015 TV178

    The following Minor Planet Electronic Circular may be linked-to from your own Web pages, but must not otherwise be redistributed electronically.

    A form allowing access to any MPEC is at the bottom of this page.


    Read MPEC 2015-T104 Read MPEC 2015-T106


    M.P.E.C. 2015-T105                               Issued 2015 Oct. 14, 14:42 UT
    
         The Minor Planet Electronic Circulars contain information on unusual
             minor planets and routine data on comets.  They are published
        on behalf of Division F of the International Astronomical Union by the
              Minor Planet Center, Smithsonian Astrophysical Observatory,
                              Cambridge, MA 02138, U.S.A.
    
                 Prepared using the Tamkin Foundation Computer Network
    
                                  MPC@CFA.HARVARD.EDU
                URL https://www.minorplanetcenter.net/    ISSN 1523-6714
    
                                      2015 TV178
    
    Observations:
         K15TH8V* C2015 10 10.58234 03 16 59.593+13 30 49.08         21.5 wLET105F51
         K15TH8V  C2015 10 10.59434 03 16 58.971+13 30 42.34         21.5 wLET105F51
         K15TH8V  C2015 10 10.60632 03 16 58.353+13 30 35.79         21.6 wLET105F51
         K15TH8V  C2015 10 10.61829 03 16 57.743+13 30 29.10         21.7 wLET105F51
         K15TH8V  C2015 10 11.22270303 16 28.88 +13 24 50.5          21.9 VtET105H01
         K15TH8V  C2015 10 11.22610003 16 28.68 +13 24 48.9          22.1 VtET105H01
         K15TH8V  C2015 10 11.24103603 16 27.91 +13 24 40.6          22.2 VtET105H01
         K15TH8V  C2015 10 11.25877303 16 26.99 +13 24 30.9          22.1 VtET105H01
         K15TH8V KC2015 10 13.32770 03 14 40.35 +13 05 10.4          21.8 RoET105291
         K15TH8V KC2015 10 13.33855 03 14 39.75 +13 05 04.5          21.6 RoET105291
         K15TH8V KC2015 10 13.35007 03 14 39.13 +13 04 57.8          21.5 RoET105291
         K15TH8V _C2015 10 13.56637103 14 27.252+13 02 57.03         21.4 RtET105568
         K15TH8V _C2015 10 13.56744803 14 27.191+13 02 56.40         21.2 RtET105568
         K15TH8V KC2015 10 14.41404 03 13 41.27 +12 54 55.1          21.4 RoET105291
         K15TH8V KC2015 10 14.41839 03 13 41.03 +12 54 52.5          21.3 RoET105291
         K15TH8V KC2015 10 14.42274 03 13 40.77 +12 54 50.2          21.0 RoET105291
    
    Observer details:
    291 LPL/Spacewatch II.  Observers R. A. Mastaler, T. H. Bressi.  1.8-m f/2.7
        reflector + CCD.
    568 Mauna Kea.  Observers R. J. Wainscoat, C. Wipper.  Measurers M. Micheli,
        R. Weryk.  3.6-m Canada-France-Hawaii Telescope + CCD.
    F51 Pan-STARRS 1, Haleakala.  Observers B. Gibson, T. Goggia, N. Primak,
        A. Schultz, M. Willman.  Measurers K. Chambers, S. Chastel, L. Denneau,
        H. Flewelling, M. Huber, E. Lilly, E. Magnier, R. Wainscoat, C. Waters,
        R. Weryk.  1.8-m Ritchey-Chretien + CCD.
    H01 Magdalena Ridge Observatory, Socorro.  Observers W. H. Ryan, E. V. Ryan.
        Measurer W. H. Ryan.  2.4-m f/8.9 reflector + CCD.
    
    Orbital elements:
    2015 TV178
    Epoch 2016 Jan. 13.0 TT = JDT 2457400.5                 MPC
    M  49.54735              (2000.0)            P               Q
    n   0.21180340     Peri.  116.80062     +0.65600875     +0.75412948
    a   2.7872810      Node   194.32507     -0.72901179     +0.62258587
    e   0.5134858      Incl.    7.12283     -0.19543371     +0.20898698
    P   4.65           H   19.3           G   0.15           U   7
    Residuals in seconds of arc
    151010 F51  0.0   0.1-    151011 H01  0.2-  0.1-    151013 568  0.3+  0.2-
    151010 F51  0.0   0.1-    151011 H01  0.2-  0.1-    151014 291  0.2-  0.0
    151010 F51  0.0   0.1+    151013 291  0.3-  0.0     151014 291  0.0   0.1-
    151010 F51  0.0   0.1+    151013 291  0.1-  0.2+    151014 291  0.1-  0.1+
    151011 H01  0.2+  0.3-    151013 291  0.3+  0.0
    151011 H01  0.2-  0.0     151013 568  0.3+  0.2-
    
    Ephemeris:
    2015 TV178               a,e,i = 2.79, 0.51, 7                   q = 1.3561
    Date    TT    R. A. (2000) Decl.     Delta      r     Elong.  Phase     V
    2015 09 14    03 24 33.7 +16 50 40   1.0603  1.7675   117.6    30.3    22.0
    ...
    2015 09 29    03 23 55.5 +15 10 52   1.0249  1.8568   132.7    23.4    21.8
    ...
    2015 10 07    03 19 40.3 +14 03 23   1.0168  1.9054   141.8    18.9    21.7
    ...
    2015 10 13    03 14 57.6 +13 08 19   1.0178  1.9420   148.9    15.4    21.6
    2015 10 14    03 14 04.1 +12 58 53   1.0186  1.9482   150.1    14.8    21.6
    2015 10 15    03 13 08.9 +12 49 25   1.0196  1.9543   151.3    14.2    21.6
    ...
    2015 10 21    03 07 10.0 +11 52 10   1.0304  1.9912   158.7    10.5    21.5
    ...
    2015 10 29    02 58 25.2 +10 37 30   1.0580  2.0405   168.1     5.8    21.4
    ...
    2015 11 13    02 42 25.5 +08 38 30   1.1536  2.1329   168.6     5.3    21.7
    
    A. U. Tomatic                (C) Copyright 2015 MPC           M.P.E.C. 2015-T105
    

    Read MPEC 2015-T104 Read MPEC 2015-T106


    MPEC number:

    Enter an MPEC number in one of the following forms:

    • 1997-B01 (the full form)
    • J97B01 (the packed version of the full form)
    • B01 (the abbreviated form)